Location: Catacaguana
(10.4120°N, 66.7591°W)
Time: 05:01:55
(UTC+00:00)

Cosmos 2058 - Pass Details

Date: 27 May 2022
Orbit: 560 x 580 km, 82.5° (Epoch: 24 June)

Event Time Altitude Azimuth Distance (km) Brightness Sun altitude
Exits shadow 09:07:49 11° 199° (SSW) 1,759 5.0 -13.5°
Maximum altitude 09:11:32 51° 274° (W) 709 3.0 -12.7°
Drops below altitude 10° 09:15:31 10° 351° (N) 1,853 5.7 -11.8°
Sets 09:17:44 0° 356° (N) 2,752 6.7 -11.3°
